Location: Newark
(45.2500°N, 7.5833°E)
Time: 13:34:04
(UTC+00:00)

Vanguard 3 - Pass Details

Date: 02 February 2020
Orbit: 508 x 3263 km, 33.3° (Epoch: 24 February)

Event Time Altitude Azimuth Distance (km) Brightness Sun altitude
Rises 14:41:51 0° 233° (SW) 5,941 13.3 15.9°
Reaches altitude 10° 14:45:29 10° 227° (SW) 5,240 14.3 15.4°
Maximum altitude 15:01:15 49° 160° (SSE) 3,776 10.9 13.4°
Drops below altitude 10° 15:19:35 10° 94° (E) 6,030 11.2 10.9°
Sets 15:24:08 0° 89° (E) 6,863 11.4 10.3°
